Simultaneous Nadir Overpasses (SNOs) Predictions

Prediction of SNOs between METOP-A and NOAA-19 Satellite Orbit:

Table of predicted SNOs for the next 14.0 days since TLE Epoch: 9/25/2015
Index Date (METOP-A) Time (METOP-A) Lat,Lon (METOP-A) SZA (METOP-A ) Date (NOAA-19) Time (NOAA-19) Lat,Lon (NOAA-19) SZA (NOAA-19 ) Distance(km) Time Diff (sec)
1 09/29/2015 13:30:58 75.41, -25.07 77.74 09/29/2015 13:29:50 75.44, -25.05 77.78 3.68 68
2 09/29/2015 14:21:39 -75.43, 142.32 102.23 09/29/2015 14:20:48 -75.42, 142.27 102.23 1.72 51
3 09/29/2015 15:12:20 75.38, -50.47 77.75 09/29/2015 15:11:52 75.42, -50.49 77.78 3.59 28
4 09/29/2015 16:03:01 -75.40, 116.92 102.22 09/29/2015 16:02:50 -75.40, 116.83 102.23 2.53 11
5 09/29/2015 16:53:42 75.36, -75.88 77.75 09/29/2015 16:53:53 75.35, -75.78 77.74 3.38 11
6 09/29/2015 17:44:23 -75.38, 91.51 102.22 09/29/2015 17:44:52 -75.37, 91.39 102.22 3.40 29
7 09/29/2015 18:35:04 75.34,-101.29 77.76 09/29/2015 18:35:55 75.32,-101.21 77.75 2.70 51
8 09/29/2015 19:25:46 -75.31, 65.96 102.26 09/29/2015 19:26:53 -75.31, 66.10 102.26 3.98 67




NCC Satellite Simultaneous Nadir Overpasses (SNOs) Prediction Service
